EWG637 EDDN-EDDH

Flight info

Callsign EWG637
Flight time 0h 57m
Altitude 30000
Route ERETO1G ERETO DCT LONLI M726 LASTO M852 LARET/N0445F340 M852 HLZ Z990 DIRBO/N0385F230 T902 RARUP RARUP6A
Aircraft A20N/M-SDE2E3FGHIRWXY/LB1

Departure

Time 2026-05-07 14:28
Airport Nuremberg Airport (EDDN)

Arrival

Time 2026-05-07 15:25
Airport Hamburg Helmut Schmidt Airport (EDDH)
Time Latitude Longitude Altitude Speed Heading
2026-05-07 14:08 49.49506 11.07856 1026 ft 0 kts 188°
2026-05-07 14:18 49.49513 11.07858 1028 ft 3 kts 188°
2026-05-07 14:19 49.49533 11.07862 1029 ft 3 kts 187°
2026-05-07 14:19 49.49553 11.07866 1029 ft 3 kts 185°
2026-05-07 14:19 49.49573 11.07868 1030 ft 3 kts 181°
2026-05-07 14:19 49.49586 11.07868 1030 ft 1 kts 179°
2026-05-07 14:20 49.49588 11.07868 1030 ft 0 kts 179°
2026-05-07 14:23 49.49578 11.07880 1030 ft 4 kts 135°
2026-05-07 14:23 49.49569 11.07944 1030 ft 9 kts 99°
2026-05-07 14:23 49.49555 11.08083 1029 ft 17 kts 99°
2026-05-07 14:24 49.49535 11.08275 1031 ft 10 kts 97°
2026-05-07 14:24 49.49536 11.08323 1032 ft 5 kts 71°
2026-05-07 14:24 49.49583 11.08361 1032 ft 11 kts 15°
2026-05-07 14:24 49.49616 11.08439 1031 ft 10 kts 96°
2026-05-07 14:25 49.49601 11.08576 1033 ft 16 kts 98°
2026-05-07 14:25 49.49582 11.08771 1035 ft 21 kts 98°
2026-05-07 14:25 49.49558 11.09019 1037 ft 26 kts 98°
2026-05-07 14:25 49.49540 11.09203 1038 ft 19 kts 99°
2026-05-07 14:26 49.49549 11.09395 1042 ft 20 kts 56°
2026-05-07 14:26 49.49598 11.09499 1042 ft 0 kts 53°
2026-05-07 14:26 49.49599 11.09500 1042 ft 1 kts 53°
2026-05-07 14:26 49.49615 11.09529 1043 ft 6 kts 50°
2026-05-07 14:27 49.49661 11.09570 1044 ft 10 kts 357°
2026-05-07 14:27 49.49704 11.09492 1043 ft 0 kts 277°
2026-05-07 14:28 49.49712 11.09411 1042 ft 43 kts 279°
2026-05-07 14:28 49.49815 11.08347 1032 ft 150 kts 277°
2026-05-07 14:28 49.50003 11.06581 1846 ft 174 kts 279°
2026-05-07 14:28 49.50192 11.04681 3138 ft 190 kts 278°
2026-05-07 14:29 49.50338 11.02608 4483 ft 199 kts 275°
2026-05-07 14:29 49.50512 11.00370 5595 ft 220 kts 279°
2026-05-07 14:29 49.50773 10.97907 6446 ft 249 kts 280°
2026-05-07 14:29 49.51391 10.95369 6795 ft 258 kts 302°
2026-05-07 14:30 49.52678 10.93419 6948 ft 264 kts 326°
2026-05-07 14:30 49.54427 10.92497 6999 ft 271 kts 352°
2026-05-07 14:30 49.56325 10.92508 6999 ft 272 kts 359°
2026-05-07 14:30 49.58221 10.92595 7000 ft 273 kts 359°
2026-05-07 14:31 49.60119 10.92673 6998 ft 273 kts 358°
2026-05-07 14:31 49.62020 10.92738 6997 ft 272 kts 358°
2026-05-07 14:31 49.63899 10.92792 6999 ft 273 kts 358°
2026-05-07 14:31 49.65809 10.92839 7103 ft 276 kts 358°
2026-05-07 14:32 49.67741 10.92883 7770 ft 278 kts 358°
2026-05-07 14:32 49.69661 10.93218 9261 ft 278 kts 13°
2026-05-07 14:32 49.71437 10.94523 10551 ft 292 kts 33°
2026-05-07 14:32 49.73085 10.96602 11326 ft 318 kts 38°
2026-05-07 14:33 49.74802 10.98908 11987 ft 343 kts 39°
2026-05-07 14:33 49.76623 11.01378 13113 ft 351 kts 39°
2026-05-07 14:33 49.78484 11.03920 14343 ft 363 kts 39°
2026-05-07 14:33 49.80401 11.06487 15542 ft 366 kts 38°
2026-05-07 14:34 49.82327 11.09116 16702 ft 373 kts 43°
2026-05-07 14:34 49.84027 11.12208 17776 ft 380 kts 53°
2026-05-07 14:34 49.85390 11.15772 18736 ft 388 kts 63°
2026-05-07 14:34 49.86546 11.19561 19668 ft 391 kts 63°
2026-05-07 14:35 49.87731 11.23400 20618 ft 396 kts 62°
2026-05-07 14:35 49.89245 11.26927 21680 ft 393 kts 46°
2026-05-07 14:35 49.91311 11.29698 22539 ft 395 kts 30°
2026-05-07 14:35 49.93778 11.31447 23387 ft 396 kts 14°
2026-05-07 14:36 49.96492 11.32076 24156 ft 397 kts 359°
2026-05-07 14:36 49.99227 11.31522 24925 ft 398 kts 344°
2026-05-07 14:36 50.01789 11.29838 25601 ft 403 kts 329°
2026-05-07 14:36 50.04069 11.27233 26213 ft 410 kts 322°
2026-05-07 14:37 50.06442 11.24769 26884 ft 412 kts 333°
2026-05-07 14:37 50.12016 11.22642 28112 ft 420 kts
2026-05-07 14:37 50.14956 11.22634 28684 ft 425 kts
2026-05-07 14:38 50.17886 11.22658 29291 ft 428 kts
2026-05-07 14:38 50.20882 11.22688 29817 ft 432 kts
2026-05-07 14:38 50.23892 11.22714 30004 ft 433 kts
2026-05-07 14:38 50.26874 11.22737 30023 ft 433 kts
2026-05-07 14:39 50.32947 11.22776 30022 ft 433 kts
2026-05-07 14:39 50.38975 11.22350 30026 ft 435 kts 356°
2026-05-07 14:40 50.44997 11.21437 30031 ft 435 kts 356°
2026-05-07 14:40 50.51022 11.20538 30031 ft 435 kts 356°
2026-05-07 14:41 50.57049 11.19634 30031 ft 441 kts 355°
2026-05-07 14:41 50.63157 11.18708 30040 ft 440 kts 355°
2026-05-07 14:42 50.69250 11.17781 30043 ft 440 kts 355°
2026-05-07 14:42 50.75358 11.16849 30045 ft 440 kts 355°
2026-05-07 14:43 50.81424 11.15921 30045 ft 440 kts 355°
2026-05-07 14:43 50.87564 11.14979 30049 ft 440 kts 355°
2026-05-07 14:44 50.93629 11.14046 30049 ft 441 kts 355°
2026-05-07 14:44 50.99736 11.13104 30048 ft 440 kts 355°
2026-05-07 14:45 51.05840 11.12159 30050 ft 440 kts 356°
2026-05-07 14:45 51.10902 11.11215 30051 ft 441 kts 351°
2026-05-07 14:46 51.17675 11.07643 30052 ft 444 kts 337°
2026-05-07 14:46 51.23308 11.03630 30053 ft 444 kts 338°
2026-05-07 14:47 51.28011 11.00295 30057 ft 446 kts 337°
2026-05-07 14:47 51.33692 10.96235 30060 ft 445 kts 336°
2026-05-07 14:48 51.39583 10.93278 30062 ft 445 kts 350°
2026-05-07 14:48 51.45732 10.92290 30065 ft 444 kts 356°
2026-05-07 14:49 51.51897 10.91536 30068 ft 444 kts 356°
2026-05-07 14:49 51.58064 10.90790 30069 ft 448 kts 356°
2026-05-07 14:50 51.64284 10.90043 30065 ft 448 kts 356°
2026-05-07 14:50 51.70494 10.89233 30069 ft 449 kts 355°
2026-05-07 14:51 51.76691 10.88140 30072 ft 446 kts 354°
2026-05-07 14:51 51.82877 10.87050 30070 ft 445 kts 354°
2026-05-07 14:52 51.89015 10.86110 30079 ft 446 kts 355°
2026-05-07 14:52 51.95201 10.85272 30081 ft 445 kts 355°
2026-05-07 14:53 52.01378 10.84412 30081 ft 445 kts 355°
2026-05-07 14:53 52.07545 10.83546 30085 ft 444 kts 354°
2026-05-07 14:54 52.13698 10.82670 30074 ft 444 kts 354°
2026-05-07 14:54 52.19862 10.81814 30077 ft 444 kts 354°
2026-05-07 14:55 52.25984 10.80971 30081 ft 444 kts 354°
2026-05-07 14:55 52.32138 10.80119 30072 ft 443 kts 354°
2026-05-07 14:56 52.38306 10.79731 30077 ft 445 kts
2026-05-07 14:56 52.44481 10.80396 30078 ft 445 kts
2026-05-07 14:57 52.50665 10.81021 30075 ft 445 kts
2026-05-07 14:57 52.56837 10.81656 30076 ft 444 kts
2026-05-07 14:58 52.62974 10.82295 30081 ft 444 kts
2026-05-07 14:58 52.69156 10.82942 30078 ft 444 kts
2026-05-07 14:59 52.75328 10.83589 30079 ft 444 kts
2026-05-07 14:59 52.81480 10.84220 30074 ft 443 kts
2026-05-07 15:00 52.87616 10.83498 30074 ft 442 kts 352°
2026-05-07 15:00 52.93675 10.82271 30070 ft 442 kts 353°
2026-05-07 15:01 52.99790 10.81042 30070 ft 442 kts 352°
2026-05-07 15:01 53.05900 10.79797 30066 ft 442 kts 352°
2026-05-07 15:02 53.11992 10.78549 29747 ft 437 kts 352°
2026-05-07 15:02 53.15006 10.77930 29033 ft 435 kts 352°
2026-05-07 15:02 53.17993 10.77316 28247 ft 430 kts 352°
2026-05-07 15:03 53.20954 10.76707 27385 ft 427 kts 352°
2026-05-07 15:03 53.23887 10.76102 26603 ft 423 kts 352°
2026-05-07 15:03 53.26795 10.75503 25828 ft 419 kts 352°
2026-05-07 15:03 53.29682 10.74909 25069 ft 416 kts 351°
2026-05-07 15:04 53.32534 10.74317 24502 ft 410 kts 351°
2026-05-07 15:04 53.35377 10.73726 23980 ft 411 kts 351°
2026-05-07 15:04 53.38211 10.73137 23432 ft 409 kts 351°
2026-05-07 15:04 53.41024 10.72551 22822 ft 404 kts 351°
2026-05-07 15:05 53.43793 10.71973 22231 ft 399 kts 351°
2026-05-07 15:05 53.46505 10.71408 21645 ft 396 kts 351°
2026-05-07 15:05 53.49228 10.70840 21083 ft 393 kts 351°
2026-05-07 15:05 53.51934 10.70274 20524 ft 388 kts 351°
2026-05-07 15:06 53.54595 10.69699 20189 ft 383 kts 348°
2026-05-07 15:06 53.57109 10.68319 20099 ft 381 kts 330°
2026-05-07 15:06 53.59237 10.65730 20090 ft 377 kts 313°
2026-05-07 15:06 53.60775 10.62193 20087 ft 374 kts 295°
2026-05-07 15:07 53.61597 10.58084 19871 ft 368 kts 279°
2026-05-07 15:07 53.61646 10.53806 19260 ft 367 kts 262°
2026-05-07 15:07 53.60978 10.49651 18516 ft 367 kts 251°
2026-05-07 15:07 53.60128 10.45586 17709 ft 366 kts 251°
2026-05-07 15:08 53.59282 10.41571 16985 ft 362 kts 251°
2026-05-07 15:08 53.58466 10.37576 16232 ft 359 kts 252°
2026-05-07 15:08 53.57682 10.33614 15533 ft 356 kts 252°
2026-05-07 15:08 53.56924 10.29715 14834 ft 354 kts 252°
2026-05-07 15:09 53.56168 10.25800 14224 ft 349 kts 252°
2026-05-07 15:09 53.55422 10.21929 13509 ft 347 kts 252°
2026-05-07 15:09 53.54676 10.18070 12784 ft 345 kts 252°
2026-05-07 15:09 53.53938 10.14256 12103 ft 341 kts 252°
2026-05-07 15:10 53.53204 10.10474 11433 ft 339 kts 252°
2026-05-07 15:10 53.52473 10.06720 10782 ft 336 kts 252°
2026-05-07 15:10 53.51751 10.03015 10301 ft 330 kts 252°
2026-05-07 15:10 53.51027 9.99309 10125 ft 335 kts 252°
2026-05-07 15:11 53.50215 9.95706 10077 ft 333 kts 244°
2026-05-07 15:11 53.49018 9.92370 10075 ft 334 kts 233°
2026-05-07 15:11 53.47541 9.89372 10066 ft 332 kts 230°
2026-05-07 15:11 53.46079 9.86462 9916 ft 316 kts 230°
2026-05-07 15:12 53.44718 9.83737 9721 ft 295 kts 230°
2026-05-07 15:12 53.43429 9.81151 9203 ft 285 kts 230°
2026-05-07 15:12 53.42163 9.78611 8457 ft 284 kts 230°
2026-05-07 15:12 53.40886 9.76051 7663 ft 287 kts 230°
2026-05-07 15:13 53.39615 9.73507 7246 ft 285 kts 230°
2026-05-07 15:13 53.38336 9.70953 6993 ft 284 kts 230°
2026-05-07 15:13 53.37072 9.68430 6814 ft 284 kts 230°
2026-05-07 15:13 53.35798 9.65890 6654 ft 283 kts 229°
2026-05-07 15:14 53.34528 9.63355 6529 ft 287 kts 229°
2026-05-07 15:14 53.33239 9.60787 6377 ft 287 kts 229°
2026-05-07 15:14 53.31958 9.58240 6218 ft 286 kts 229°
2026-05-07 15:14 53.30749 9.55627 6055 ft 284 kts 241°
2026-05-07 15:15 53.30206 9.52524 5903 ft 282 kts 268°
2026-05-07 15:15 53.30537 9.49350 5748 ft 277 kts 296°
2026-05-07 15:15 53.31708 9.46891 5595 ft 270 kts 329°
2026-05-07 15:15 53.33445 9.45974 5440 ft 261 kts
2026-05-07 15:16 53.35124 9.46883 5288 ft 256 kts 37°
2026-05-07 15:16 53.36445 9.48880 5141 ft 255 kts 46°
2026-05-07 15:16 53.37684 9.51004 4980 ft 255 kts 47°
2026-05-07 15:16 53.38912 9.53144 4817 ft 254 kts 47°
2026-05-07 15:17 53.40123 9.55272 4671 ft 252 kts 47°
2026-05-07 15:17 53.41303 9.57358 4513 ft 241 kts 47°
2026-05-07 15:17 53.42427 9.59352 4412 ft 229 kts 48°
2026-05-07 15:17 53.43491 9.61250 4276 ft 219 kts 48°
2026-05-07 15:18 53.44509 9.63075 4123 ft 212 kts 48°
2026-05-07 15:18 53.45552 9.64960 4030 ft 221 kts 49°
2026-05-07 15:18 53.46583 9.66843 3930 ft 218 kts 49°
2026-05-07 15:18 53.47609 9.68731 3830 ft 218 kts 49°
2026-05-07 15:19 53.48590 9.70551 3715 ft 201 kts 49°
2026-05-07 15:19 53.49475 9.72196 3653 ft 179 kts 49°
2026-05-07 15:19 53.50260 9.73658 3520 ft 160 kts 49°
2026-05-07 15:19 53.50959 9.74961 3370 ft 140 kts 50°
2026-05-07 15:20 53.51576 9.76116 3203 ft 127 kts 50°
2026-05-07 15:20 53.52145 9.77183 3045 ft 117 kts 50°
2026-05-07 15:20 53.52671 9.78178 2906 ft 115 kts 50°
2026-05-07 15:20 53.53205 9.79194 2756 ft 116 kts 51°
2026-05-07 15:21 53.53721 9.80188 2597 ft 112 kts 51°
2026-05-07 15:21 53.54246 9.81206 2452 ft 117 kts 51°
2026-05-07 15:21 53.54779 9.82244 2291 ft 114 kts 51°
2026-05-07 15:21 53.55283 9.83231 2136 ft 113 kts 51°
2026-05-07 15:22 53.55797 9.84239 1980 ft 110 kts 52°
2026-05-07 15:22 53.56310 9.85214 1832 ft 115 kts 51°
2026-05-07 15:22 53.56818 9.86234 1665 ft 109 kts 52°
2026-05-07 15:22 53.57318 9.87243 1518 ft 114 kts 52°
2026-05-07 15:23 53.57821 9.88258 1364 ft 112 kts 52°
2026-05-07 15:23 53.58316 9.89263 1216 ft 110 kts 53°
2026-05-07 15:23 53.58808 9.90257 1051 ft 111 kts 52°
2026-05-07 15:23 53.59300 9.91252 897 ft 108 kts 50°
2026-05-07 15:24 53.59782 9.92226 780 ft 110 kts 51°
2026-05-07 15:24 53.60271 9.93223 672 ft 108 kts 51°
2026-05-07 15:24 53.60742 9.94204 567 ft 107 kts 49°
2026-05-07 15:24 53.61230 9.95155 363 ft 113 kts 52°
2026-05-07 15:25 53.61717 9.96155 169 ft 108 kts 50°
2026-05-07 15:25 53.62195 9.97121 57 ft 105 kts 50°
2026-05-07 15:25 53.62594 9.97927 42 ft 68 kts 50°
2026-05-07 15:25 53.62724 9.98189 44 ft 17 kts 50°
2026-05-07 15:26 53.62754 9.98326 44 ft 6 kts 126°
2026-05-07 15:26 53.62708 9.98414 43 ft 14 kts 144°
2026-05-07 15:26 53.62672 9.98498 42 ft 0 kts 76°
2026-05-07 15:26 53.62673 9.98505 42 ft 3 kts 73°
2026-05-07 15:27 53.62701 9.98578 42 ft 11 kts 53°
2026-05-07 15:27 53.62761 9.98698 43 ft 16 kts 50°
2026-05-07 15:27 53.62839 9.98855 43 ft 19 kts 50°
2026-05-07 15:27 53.62933 9.99047 43 ft 23 kts 50°
2026-05-07 15:28 53.63039 9.99259 44 ft 18 kts 48°
2026-05-07 15:28 53.63109 9.99422 44 ft 19 kts 54°
2026-05-07 15:28 53.63195 9.99615 44 ft 19 kts 50°
2026-05-07 15:28 53.63211 9.99647 44 ft 6 kts 50°
2026-05-07 15:29 53.63221 9.99738 45 ft 11 kts 114°
2026-05-07 15:29 53.63147 9.99829 45 ft 16 kts 153°
2026-05-07 15:29 53.63113 9.99880 45 ft 4 kts 89°
2026-05-07 15:29 53.63134 9.99941 43 ft 9 kts 53°
2026-05-07 15:30 53.63186 10.00043 45 ft 14 kts 49°
2026-05-07 15:30 53.63249 10.00184 45 ft 9 kts 68°
2026-05-07 15:30 53.63243 10.00302 45 ft 12 kts 91°
2026-05-07 15:30 53.63243 10.00366 46 ft 3 kts 89°
2026-05-07 15:31 53.63244 10.00378 46 ft 0 kts 89°